Weather in Bạc Liêu

Vietnam     9°17′06″N   105°43′23″E
В апреле 2022 года жителям России запретили посещать сайт meteo.paraplan.net по решению Генеральной прокуратуры. Аудитория сайта уменьшилась в 10 раз. Владельцы сайта не видят смысла в поддержке погодного сервера в таких условиях. Сайт будет закрыт в октябре.
temp.,
°C
wind,
m/s
gust,
m/s
humid.,
%
clouds,
%
prec.,
mm/h
press.,
hPa
HPBL,
m
26 september, mon
mon2601:00+27nw2281100 0.0 1009119
04:00+26n3382100 0.0 1007119
07:00+26nnw238269 0.1 1009177
10:00+30wsw3466100 0.0 1009774
13:00+31sw356191 0.3 10071186
16:00+30sw3570100 3.4 1005232
19:00+27wnw5879100 5.2 1008369
22:00+27w4684100 0.6 1009305
27 september, tue
tue2701:00+26w4787100 2.8 1007266
04:00+26wnw4683100 2.6 1006246
07:00+26w368279 3.4 1008329
10:00+30w686920 2.3 10081042
13:00+29w81072100 6.4 10061222
16:00+27w81177100 2.8 1005769
19:00+26wsw71282100 2.9 1007651
22:00+26wsw61384100 0.2 1008661
28 september, wed
wed2801:00+26w91583100 0.2 1005800
04:00+26wsw81584100 0.1 1005855
07:00+25w71486100 0.1 1005848
10:00+26w71385100 0.1 10061034
13:00+27w81584100 1.3 10041140
16:00+27w91580100 0.5 10031193
19:00+26wsw61284100 0.9 1005710
22:00+26wsw61187100 0.3 1006557
29 september, thu
thu2901:00+26wsw61186100 1.7 1005526
04:00+25wsw51190100 3.5 1004469
07:00+26wsw51085100 5.8 1006416
10:00+28wsw71077100 2.4 1007981
13:00+29wsw8973100 4.8 10051250
16:00+29wsw6974100 0.8 10041079
19:00+26wsw5987100 4.4 1007426
22:00+26wsw5108798 2.7 1009485
30 september, fri
fri3001:00+26wsw6118499 7.8 1007515
04:00+25wsw4990100 2.4 1007479
07:00+26sw6989100 5.4 1008472
10:00+27wsw698298 1.7 1009736
13:00+25w4892100 13.4 1007352
16:00+28wsw6877100 0.2 1005937
19:00+26wsw4788100 1.6 1007300
22:00+26wsw5988100 0.4 1009380